Change the Weather History Date:

Friday, May 9, 2014

  Actual Average Record
Temperature  
Mean Temperature 58 °F -  
Max Temperature 66 °F 69 °F 89 °F (1979)
Min Temperature 44 °F 45 °F 30 °F (1983)
Degree Days  
Heating Degree Days 7    
Growing Degree Days 8 (Base 50)    
Moisture  
Dew Point 50 °F    
Average Humidity 75    
Maximum Humidity 94    
Minimum Humidity 57    
Precipitation  
Precipitation 0.03 in - - ()
Sea Level Pressure  
Sea Level Pressure 29.76 in    
Wind  
Wind Speed 15 mph (SW)    
Max Wind Speed 22 mph    
Max Gust Speed 29 mph    
Visibility 10 miles    
Events Rain    
Averages and records for this station are not official NWS values.
T = Trace of Precipitation, MM = Missing Value Source: NWS Daily Summary

Daily Weather History Graph

Daily Weather History Graph

Search for Another Location

Airport or City:

Trip Planner

Search our weather history database for the weather conditions in past years. The results will help you decide how hot, cold, wet, or windy it might be!

Date:

Astronomy

May. 09, 2014 Rise Set
Actual Time 5:43 AM CDT 8:06 PM CDT
Civil Twilight 5:12 AM CDT 8:38 PM CDT
Nautical Twilight 4:33 AM CDT 9:17 PM CDT
Astronomical Twilight 3:50 AM CDT 10:00 PM CDT
Moon 2:58 PM CDT (5/9) 2:52 AM CDT (5/9)
Length of Visible Light 15h 25m
Length of Day
14h 22m
Waxing Gibbous, 74% of the Moon is Illuminated
May 9
Waxing Gibbous
May 14
Full
May 21
Last Quarter
May 28
New
Jun 5
First Quarter

Hourly Weather History & Observations

Time (CDT) Temp. Windchill Dew Point Humidity Pressure Visibility Wind Dir Wind Speed Gust Speed Precip Events Conditions
12:15 AM 66.2 °F - 60.8 °F 83% 29.76 in 10.0 mi South 15.0 mph 19.6 mph N/A   Overcast
12:35 AM 64.8 °F - 60.1 °F 85% 29.75 in 10.0 mi South 16.1 mph - N/A   Overcast
12:55 AM 64.0 °F - 59.0 °F 84% 29.74 in 10.0 mi South 17.3 mph - N/A   Overcast
1:15 AM 63.9 °F - 59.4 °F 85% 29.73 in 10.0 mi South 16.1 mph 23.0 mph N/A   Overcast
1:35 AM 63.7 °F - 59.2 °F 85% 29.72 in 10.0 mi South 13.8 mph 21.9 mph N/A   Overcast
1:55 AM 63.5 °F - 59.7 °F 87% 29.71 in 10.0 mi South 15.0 mph 20.7 mph N/A   Mostly Cloudy
2:15 AM 63.5 °F - 60.1 °F 89% 29.71 in 10.0 mi South 16.1 mph 23.0 mph N/A   Mostly Cloudy
2:35 AM 63.5 °F - 60.1 °F 89% 29.71 in 10.0 mi South 15.0 mph 20.7 mph N/A   Overcast
2:55 AM 62.6 °F - 59.4 °F 89% 29.71 in 10.0 mi South 18.4 mph 24.2 mph N/A   Overcast
3:15 AM 62.6 °F - 59.5 °F 90% 29.71 in 10.0 mi South 18.4 mph 25.3 mph N/A   Overcast
3:35 AM 62.6 °F - 60.8 °F 94% 29.70 in 10.0 mi South 21.9 mph 27.6 mph N/A Rain Light Rain
3:55 AM 62.6 °F - 59.4 °F 89% 29.69 in 10.0 mi South 20.7 mph 28.8 mph N/A   Overcast
4:15 AM 63.5 °F - 60.1 °F 89% 29.69 in 10.0 mi SSW 19.6 mph 25.3 mph N/A   Overcast
4:35 AM 62.6 °F - 59.5 °F 90% 29.69 in 10.0 mi SSW 18.4 mph 26.5 mph N/A Rain Rain
4:55 AM 62.1 °F - 59.5 °F 91% 29.69 in 10.0 mi SSW 17.3 mph 20.7 mph N/A Rain Light Rain
5:15 AM 62.1 °F - 59.5 °F 91% 29.68 in 7.0 mi SSW 18.4 mph 24.2 mph N/A Rain Rain
5:35 AM 61.0 °F - 59.0 °F 93% 29.67 in 7.0 mi SSW 11.5 mph - 0.02 in Rain Light Rain
5:55 AM 60.8 °F - 59.0 °F 94% 29.67 in 10.0 mi SSW 17.3 mph - 0.02 in   Mostly Cloudy
6:15 AM 61.2 °F - 59.4 °F 94% 29.68 in 7.0 mi SSW 15.0 mph - N/A Rain Light Rain
6:35 AM 61.5 °F - 59.7 °F 94% 29.68 in 10.0 mi SSW 16.1 mph 23.0 mph N/A   Light Drizzle
6:55 AM 61.7 °F - 59.9 °F 94% 29.68 in 7.0 mi SSW 18.4 mph - 0.01 in Rain Light Rain
7:15 AM 61.9 °F - 60.1 °F 94% 29.69 in 10.0 mi SW 15.0 mph 21.9 mph N/A   Overcast
7:35 AM 61.9 °F - 60.1 °F 94% 29.68 in 10.0 mi SW 17.3 mph 20.7 mph N/A   Overcast
7:55 AM 62.1 °F - 59.9 °F 93% 29.68 in 10.0 mi WSW 12.7 mph 18.4 mph N/A   Mostly Cloudy
8:15 AM 58.3 °F - 54.1 °F 86% 29.71 in 10.0 mi West 18.4 mph 26.5 mph N/A   Mostly Cloudy
8:35 AM 56.1 °F - 51.8 °F 85% 29.72 in 10.0 mi West 15.0 mph 24.2 mph N/A   Unknown
8:55 AM 55.8 °F - 51.1 °F 84% 29.72 in 10.0 mi West 16.1 mph 21.9 mph N/A   Overcast
9:15 AM 56.1 °F - 50.7 °F 82% 29.73 in 10.0 mi West 17.3 mph 24.2 mph N/A   Scattered Clouds
9:35 AM 58.3 °F - 51.6 °F 78% 29.72 in 10.0 mi West 15.0 mph - N/A   Clear
9:55 AM 58.3 °F - 50.0 °F 74% 29.72 in 10.0 mi West 16.1 mph 21.9 mph N/A   Clear
10:15 AM 58.3 °F - 48.0 °F 69% 29.73 in 10.0 mi West 13.8 mph - N/A   Clear
10:35 AM 58.3 °F - 46.9 °F 66% 29.72 in 10.0 mi West 16.1 mph 20.7 mph N/A   Clear
10:55 AM 60.4 °F - 48.6 °F 65% 29.73 in 10.0 mi West 15.0 mph 18.4 mph N/A   Clear
11:15 AM 60.8 °F - 47.1 °F 61% 29.74 in 10.0 mi SW 16.1 mph 24.2 mph N/A   Clear
11:35 AM 60.8 °F - 46.9 °F 60% 29.74 in 10.0 mi West 12.7 mph 24.2 mph N/A   Clear
11:55 AM 60.8 °F - 47.1 °F 61% 29.74 in 10.0 mi West 20.7 mph 28.8 mph N/A   Clear
12:15 PM 61.2 °F - 47.5 °F 61% 29.75 in 10.0 mi West 17.3 mph 26.5 mph N/A   Scattered Clouds
12:35 PM 60.8 °F - 46.6 °F 59% 29.75 in 10.0 mi West 16.1 mph 25.3 mph N/A   Mostly Cloudy
12:55 PM 59.2 °F - 46.0 °F 62% 29.75 in 10.0 mi West 13.8 mph 21.9 mph N/A   Scattered Clouds
1:15 PM 58.8 °F - 46.0 °F 63% 29.76 in 10.0 mi West 15.0 mph 23.0 mph N/A   Mostly Cloudy
1:35 PM 59.9 °F - 45.9 °F 60% 29.76 in 10.0 mi West 13.8 mph 20.7 mph N/A   Mostly Cloudy
1:55 PM 59.2 °F - 45.3 °F 60% 29.77 in 10.0 mi WSW 19.6 mph 26.5 mph N/A   Mostly Cloudy
2:15 PM 59.2 °F - 45.5 °F 60% 29.77 in 10.0 mi West 17.3 mph 26.5 mph N/A   Mostly Cloudy
2:35 PM 59.4 °F - 45.7 °F 61% 29.77 in 10.0 mi West 21.9 mph 26.5 mph N/A   Mostly Cloudy
2:55 PM 58.3 °F - 44.2 °F 60% 29.77 in 10.0 mi West 19.6 mph 28.8 mph N/A   Mostly Cloudy
3:15 PM 58.8 °F - 44.4 °F 59% 29.77 in 10.0 mi West 17.3 mph 24.2 mph N/A   Mostly Cloudy
3:35 PM 58.6 °F - 44.8 °F 60% 29.78 in 10.0 mi West 17.3 mph 24.2 mph N/A   Mostly Cloudy
3:55 PM 58.6 °F - 45.1 °F 61% 29.78 in 10.0 mi West 17.3 mph 23.0 mph N/A   Mostly Cloudy
4:15 PM 58.3 °F - 44.1 °F 59% 29.79 in 10.0 mi WSW 16.1 mph 26.5 mph N/A   Mostly Cloudy
4:35 PM 58.3 °F - 44.4 °F 60% 29.79 in 10.0 mi West 16.1 mph 23.0 mph N/A   Mostly Cloudy
4:55 PM 58.3 °F - 43.9 °F 59% 29.79 in 10.0 mi WSW 16.1 mph 25.3 mph N/A   Mostly Cloudy
5:15 PM 58.3 °F - 44.2 °F 60% 29.79 in 10.0 mi West 18.4 mph 24.2 mph N/A   Mostly Cloudy
5:35 PM 58.3 °F - 43.0 °F 57% 29.80 in 10.0 mi West 19.6 mph 25.3 mph N/A   Scattered Clouds
5:55 PM 58.1 °F - 44.1 °F 60% 29.80 in 10.0 mi West 15.0 mph 21.9 mph N/A   Mostly Cloudy
6:15 PM 57.7 °F - 43.3 °F 59% 29.81 in 10.0 mi West 17.3 mph 21.9 mph N/A   Mostly Cloudy
6:35 PM 56.8 °F - 41.9 °F 57% 29.82 in 10.0 mi West 18.4 mph 27.6 mph N/A   Mostly Cloudy
6:55 PM 56.8 °F - 41.9 °F 57% 29.82 in 10.0 mi West 16.1 mph 23.0 mph N/A   Mostly Cloudy
7:15 PM 55.8 °F - 41.5 °F 59% 29.82 in 10.0 mi West 13.8 mph 17.3 mph N/A   Mostly Cloudy
7:35 PM 55.8 °F - 42.3 °F 60% 29.83 in 10.0 mi West 9.2 mph 17.3 mph N/A   Scattered Clouds
7:55 PM 55.8 °F - 43.5 °F 63% 29.83 in 10.0 mi West 6.9 mph - N/A   Mostly Cloudy
8:15 PM 55.8 °F - 44.2 °F 65% 29.83 in 10.0 mi WSW 6.9 mph - N/A   Scattered Clouds
8:35 PM 53.2 °F - 42.8 °F 68% 29.84 in 10.0 mi WSW 4.6 mph - N/A   Clear
8:55 PM 50.9 °F - 42.3 °F 72% 29.84 in 10.0 mi SW 4.6 mph - N/A   Clear
9:15 PM 50.9 °F - 42.3 °F 72% 29.85 in 10.0 mi SW 5.8 mph - N/A   Clear
9:35 PM 50.9 °F - 43.3 °F 75% 29.86 in 10.0 mi SW 5.8 mph - N/A   Clear
9:55 PM 50.5 °F - 44.1 °F 78% 29.87 in 10.0 mi SW 6.9 mph - N/A   Clear
10:15 PM 50.9 °F - 44.2 °F 78% 29.87 in 10.0 mi SW 6.9 mph - N/A   Clear
10:35 PM 50.9 °F - 43.7 °F 76% 29.87 in 10.0 mi SW 4.6 mph - N/A   Clear
10:55 PM 50.9 °F - 43.9 °F 77% 29.87 in 10.0 mi SW 4.6 mph - N/A   Clear
11:15 PM 50.7 °F - 43.9 °F 77% 29.89 in 10.0 mi Calm Calm - N/A   Clear
11:35 PM 50.9 °F - 43.7 °F 76% 29.89 in 10.0 mi SW 4.6 mph - N/A   Clear
11:55 PM 44.1 °F 40.1 °F 39.7 °F 85% 29.89 in 10.0 mi SW 6.9 mph - N/A   Clear